Location: Sternwarte Stuttgart
(48.7670°N, 9.1830°E)
Time: 21:06:56
(UTC+02:00)

Aureole 1 Rocket - Visible Passes

Search period start: 15 October 2019 00:00
Search period end: 25 October 2019 00:00
Orbit: 379 x 1383 km, 73.9° (Epoch: 14 October)

Date Brightness Start Highest point End Pass type
(mag) Time Alt. Az. Time Alt. Az. Time Alt. Az.
15 Oct 5.0 05:03:10 10° S 05:09:33 42° ESE 05:14:34 10° NE visible
15 Oct 4.3 06:48:04 10° SW 06:54:07 38° WNW 06:58:51 10° N visible
16 Oct 4.7 05:00:49 13° S 05:06:30 47° ESE 05:11:30 10° NE visible
16 Oct 4.4 06:45:23 10° WSW 06:51:06 33° WNW 06:55:37 10° N visible
17 Oct 4.4 04:59:54 25° S 05:03:27 53° ESE 05:08:26 10° NNE visible
17 Oct 4.5 06:42:44 10° WSW 06:48:06 29° WNW 06:52:22 10° N visible
18 Oct 4.1 04:58:30 41° SSE 05:00:24 61° ESE 05:05:20 10° NNE visible
18 Oct 4.6 06:41:14 14° WSW 06:45:04 25° WNW 06:49:05 10° N visible
19 Oct 6.5 03:14:02 11° E 03:14:02 11° E 03:14:48 10° E visible
19 Oct 3.8 04:56:45 64° SSE 04:57:20 69° ESE 05:02:12 10° NNE visible
19 Oct 4.7 06:39:29 16° W 06:42:03 22° NW 06:45:46 10° N visible
20 Oct 6.5 03:12:04 11° ENE 03:12:04 11° ENE 03:12:24 10° ENE visible
20 Oct 3.7 04:54:46 71° ENE 04:54:46 71° ENE 04:59:04 10° NNE visible
20 Oct 4.9 06:37:29 17° WNW 06:39:02 19° NW 06:42:24 10° N visible
21 Oct 4.1 04:52:37 50° NNE 04:52:37 50° NNE 04:55:54 10° NNE visible
21 Oct 5.0 06:35:18 16° WNW 06:36:01 16° NW 06:38:59 10° NNW visible
22 Oct 4.6 04:50:18 34° NNE 04:50:18 34° NNE 04:52:44 10° NNE visible
22 Oct 5.1 06:33:00 14° NW 06:33:01 14° NW 06:35:28 10° NNW visible
23 Oct 5.1 04:47:53 24° NNE 04:47:53 24° NNE 04:49:32 10° NNE visible
23 Oct 5.2 06:30:33 12° NW 06:30:33 12° NW 06:31:48 10° NNW visible
24 Oct 5.5 04:45:22 17° NNE 04:45:22 17° NNE 04:46:18 10° NNE visible
